Location: Harbor Side
(32.6101°N, 117.0814°W)
Time: 07:31:36
(UTC+00:00)

Centaur D AC-25 - Pass Details

Date: 21 April 2021
Orbit: 628 x 36456 km, 27.6° (Epoch: 13 May)

Event Time Altitude Azimuth Distance (km) Brightness Sun altitude
Exits shadow 12:14:17 14° 261° (W) 3,046 5.0 -12.2°
Maximum altitude 12:18:22 24° 214° (SW) 1,633 3.7 -11.4°
Drops below altitude 10° 12:21:33 10° 155° (SSE) 2,020 4.7 -10.8°
Sets 12:23:42 0° 138° (SE) 2,911 5.8 -10.4°
